Ketchikan, AK

1:25 PM AKDT on June 26, 2017 (GMT -0800)
Ketchikan International

Weather History for PAKT - November, 2012

Change the Weather History Date:

Friday, November 2, 2012

  Actual Average Record
Temperature  
Mean Temperature 46 °F -  
Max Temperature 48 °F 48 °F 65 °F (1949)
Min Temperature 43 °F 38 °F 26 °F (2003)
Degree Days  
Heating Degree Days 20    
Moisture  
Dew Point 43 °F    
Average Humidity 91    
Maximum Humidity 100    
Minimum Humidity 71    
Precipitation  
Precipitation 0.70 in - - ()
Sea Level Pressure  
Sea Level Pressure 29.62 in    
Wind  
Wind Speed 10 mph (SSE)    
Max Wind Speed 23 mph    
Max Gust Speed 31 mph    
Visibility 8 miles    
Events Rain    
Averages and records for this station are not official NWS values.
T = Trace of Precipitation, MM = Missing Value Source: NWS Daily Summary

Daily Weather History Graph

Daily Weather History Graph

Search for Another Location

Airport or City:

Trip Planner

Search our weather history database for the weather conditions in past years. The results will help you decide how hot, cold, wet, or windy it might be!

Date:

Astronomy

Nov. 02, 2012 Rise Set
Actual Time 7:55 AM AKDT 5:04 PM AKDT
Civil Twilight 7:15 AM AKDT 5:43 PM AKDT
Nautical Twilight 6:32 AM AKDT 6:27 PM AKDT
Astronomical Twilight 5:49 AM AKDT 7:09 PM AKDT
Moon 7:35 PM AKDT (11/2) 11:44 AM AKDT (11/2)
Length of Visible Light 10h 28m
Length of Day
9h 09m
Waning Gibbous, 86% of the Moon is Illuminated
Nov 2
Waning Gibbous
Nov 6
Last Quarter
Nov 13
New
Nov 20
First Quarter
Nov 28
Full

Hourly Weather History & Observations

Time (AKDT) Temp. Windchill Dew Point Humidity Pressure Visibility Wind Dir Wind Speed Gust Speed Precip Events Conditions
12:10 AM 44.6 °F 39.2 °F 35.6 °F 71% 29.69 in 10.0 mi South 10.4 mph 20.7 mph 0.00 in Rain Light Rain
12:53 AM 43.0 °F 37.7 °F 39.0 °F 86% 29.69 in 10.0 mi South 9.2 mph - 0.01 in Rain Light Rain
1:53 AM 45.0 °F 41.2 °F 41.0 °F 86% 29.67 in 10.0 mi Variable 6.9 mph - 0.00 in Rain Light Rain
2:53 AM 46.9 °F - 44.1 °F 90% 29.65 in 8.0 mi South 10.4 mph 25.3 mph 0.01 in Rain Light Rain
3:53 AM 48.0 °F - 42.1 °F 80% 29.64 in 10.0 mi SSE 10.4 mph 20.7 mph 0.01 in   Overcast
4:02 AM 46.4 °F 41.5 °F 42.8 °F 87% 29.63 in 10.0 mi South 10.4 mph 20.7 mph N/A   Overcast
4:16 AM 46.4 °F 41.1 °F 41.0 °F 81% 29.62 in 10.0 mi South 11.5 mph 19.6 mph 0.00 in Rain Light Rain
4:45 AM 46.4 °F 41.5 °F 42.8 °F 87% 29.61 in 10.0 mi South 10.4 mph 19.6 mph 0.00 in   Overcast
4:53 AM 48.0 °F - 41.0 °F 77% 29.61 in 10.0 mi South 13.8 mph 23.0 mph 0.00 in Rain Light Rain
5:53 AM 46.0 °F 40.6 °F 43.0 °F 89% 29.59 in 9.0 mi South 11.5 mph 19.6 mph 0.05 in Rain Rain
6:53 AM 44.6 °F 38.8 °F 42.8 °F 93% 29.59 in 7.0 mi SSE 11.5 mph 20.7 mph N/A Rain Rain
7:53 AM 44.6 °F 35.9 °F 42.8 °F 93% 29.59 in 5.0 mi SE 23.0 mph 31.1 mph N/A Rain Light Rain
8:53 AM 46.4 °F 40.4 °F 44.6 °F 93% 29.61 in 4.0 mi SSE 13.8 mph 21.9 mph N/A Rain Rain
9:53 AM 46.4 °F 40.1 °F 44.6 °F 93% 29.61 in 4.0 mi SSE 15.0 mph 27.6 mph N/A Rain Light Rain
10:53 AM 46.4 °F 40.4 °F 44.6 °F 93% 29.62 in 4.0 mi SSE 13.8 mph 23.0 mph N/A Rain Light Rain
11:53 AM 48.2 °F - 44.6 °F 87% 29.62 in 9.0 mi SSE 16.1 mph 25.3 mph N/A Rain Light Rain
12:53 PM 46.9 °F - 46.0 °F 97% 29.61 in 3.0 mi SSE 12.7 mph 23.0 mph 0.16 in Rain Rain
1:53 PM 46.9 °F - 46.0 °F 97% 29.62 in 2.0 mi SSE 8.1 mph - 0.16 in Rain Rain
2:07 PM 46.4 °F 42.4 °F 46.4 °F 100% 29.61 in 3.0 mi SE 8.1 mph - 0.05 in Rain Rain
2:53 PM 46.9 °F - 45.0 °F 93% 29.62 in 6.0 mi SE 8.1 mph - 0.12 in Rain Light Rain
3:53 PM 46.0 °F 43.9 °F 45.0 °F 96% 29.62 in 4.0 mi SSE 4.6 mph - 0.08 in Rain Light Rain
4:53 PM 45.0 °F 40.6 °F 45.0 °F 100% 29.61 in 6.0 mi SE 8.1 mph - 0.06 in Rain Light Rain
5:53 PM 45.0 °F 42.6 °F 45.0 °F 100% 29.60 in 10.0 mi South 4.6 mph - 0.01 in   Overcast
6:53 PM 45.0 °F 41.2 °F 44.1 °F 97% 29.60 in 10.0 mi SSE 6.9 mph - N/A   Overcast
6:59 PM 44.6 °F 40.7 °F 44.6 °F 100% 29.60 in 10.0 mi SSE 6.9 mph - N/A   Overcast
7:53 PM 45.0 °F 40.6 °F 43.0 °F 93% 29.61 in 10.0 mi SSE 8.1 mph - 0.00 in   Overcast
8:53 PM 44.1 °F 41.5 °F 43.0 °F 96% 29.62 in 10.0 mi SE 4.6 mph - N/A   Overcast
9:04 PM 44.6 °F 42.2 °F 42.8 °F 93% 29.62 in 10.0 mi SSE 4.6 mph - N/A   Overcast
9:53 PM 44.1 °F 40.8 °F 43.0 °F 96% 29.64 in 10.0 mi SSE 5.8 mph - N/A   Overcast
10:51 PM 44.6 °F 41.4 °F 42.8 °F 93% 29.65 in 10.0 mi SSE 5.8 mph - N/A   Overcast
10:53 PM 44.1 °F 40.8 °F 42.1 °F 93% 29.65 in 10.0 mi South 5.8 mph - N/A   Overcast
11:53 PM 43.0 °F 41.3 °F 42.1 °F 97% 29.66 in 9.0 mi SSE 3.5 mph - 0.03 in Rain Light Rain